Stations météo

Publicité
Rimini, Italie (16149): Température de l'air & dewpoint: 11.12.2018 13:00:00 - 17.12.2018 13:00:00 (CET)Rimini, Italie (16149): Vitesse du vent: 11.12.2018 13:00:00 - 17.12.2018 13:00:00 (CET)Rimini, Italie (16149): Direction du vent: 11.12.2018 13:00:00 - 17.12.2018 13:00:00 (CET)Rimini, Italie (16149): reduced air pressure: 11.12.2018 13:00:00 - 17.12.2018 13:00:00 (CET)Rimini, Italie (16149): visibility: 11.12.2018 13:00:00 - 17.12.2018 13:00:00 (CET)Rimini, Italie (16149): Quantités de précipitations: 11.12.2018 13:00:00 - 17.12.2018 13:00:00 (CET)
Date & Time tt [°C] td [°C] ff [km/h] ff [knt] dd ppp [hPa] vv [km] rr [mm]
17.12.2018 13:00:00 1,4 0,7 26 14 W 1019,3 3,0 -
17.12.2018 12:00:00 1,0 1,0 26 14 W - 4,0 -
17.12.2018 11:00:00 1,0 0,0 24 13 W - 4,0 -
17.12.2018 10:00:00 1,1 0,4 24 13 W 1019,1 4,0 0,0
17.12.2018 09:00:00 1,0 0,0 21 11 W - 4,0 -
17.12.2018 08:00:00 1,0 0,0 16 9 W - 3,0 -
17.12.2018 07:00:00 0,6 0,2 16 9 W 1017,5 3,3 -
17.12.2018 06:00:00 1,0 0,0 15 8 W - 4,6 -
17.12.2018 05:00:00 0,0 0,0 8 4 WSW - 2,1 -
17.12.2018 04:00:00 0,2 -0,1 8 4 SW 1017,1 1,6 0,0
17.12.2018 03:00:00 0,0 0,0 8 4 W - 0,6 -
17.12.2018 02:00:00 0,0 0,0 4 2 WSW - 0,6 -
17.12.2018 01:00:00 0,8 0,4 8 4 SW 1017,6 2,1 -
17.12.2018 00:00:00 1,0 1,0 4 2 - - 2,3 -
16.12.2018 23:00:00 1,0 1,0 5 3 W - 4,0 -
16.12.2018 22:00:00 2,1 0,9 13 7 WNW 1018,6 6 0,0
16.12.2018 21:00:00 3,0 1,0 2 1 - - 7 -
16.12.2018 20:00:00 4,0 -1,0 8 4 W - 10 -
16.12.2018 19:00:00 3,7 -0,2 9 5 W 1017,5 10 -
16.12.2018 18:00:00 5,0 1,0 13 7 W - 10 -
16.12.2018 17:00:00 8,0 0,0 4 2 - - 10 -
16.12.2018 16:00:00 8,6 0,1 5 3 ENE 1017,5 10 0,0
16.12.2018 15:00:00 9,0 -2,0 5 3 ESE - 10 -
16.12.2018 14:00:00 9,0 -2,0 9 5 ESE - 10 -
16.12.2018 13:00:00 8,5 -2,0 8 4 SE 1018,6 10 -
16.12.2018 12:00:00 7,0 -2,0 11 6 SSE - 10 -
16.12.2018 11:00:00 5,0 0,0 5 3 E - 10 -
16.12.2018 10:00:00 2,9 -0,2 5 3 W 1020,5 10 0,0
16.12.2018 09:00:00 2,0 -2,0 4 2 - - 10 -
16.12.2018 08:00:00 -1,0 -3,0 5 3 SSE - 8 -
16.12.2018 07:00:00 -2,5 -3,3 4 2 - 1019,5 8 -
16.12.2018 06:00:00 -2,0 -3,0 2 1 - - 8 -
16.12.2018 05:00:00 -1,0 -2,0 4 2 S - 9 -
16.12.2018 04:00:00 -1,6 -3,2 4 2 - 1020,3 10 0,0
16.12.2018 03:00:00 -2,0 -4,0 5 3 S - 10 -
16.12.2018 02:00:00 -1,0 -3,0 5 3 S - 10 -
16.12.2018 01:00:00 -0,3 -3,2 8 4 SSW 1020,9 10 -
16.12.2018 00:00:00 0,0 -3,0 8 4 SSW - 10 -
15.12.2018 23:00:00 1,0 -3,0 5 3 SW - 10 -
15.12.2018 22:00:00 1,8 -3,6 11 6 WSW 1020,8 10 0,0
15.12.2018 21:00:00 3,0 -3,0 9 5 WSW - 10 -
15.12.2018 20:00:00 3,0 -3,0 16 9 W - 10 -
15.12.2018 19:00:00 2,9 -2,6 18 10 W 1020,8 10 -
15.12.2018 18:00:00 4,0 -2,0 18 10 W - 10 -
15.12.2018 17:00:00 4,0 -2,0 22 12 W - 10 -
15.12.2018 16:00:00 4,6 -1,5 28 15 WNW 1019,4 10 0,0
15.12.2018 15:00:00 5,0 -2,0 26 14 W - 10 -
15.12.2018 14:00:00 5,0 -3,0 28 15 WNW - 10 -
15.12.2018 13:00:00 5,5 -2,0 31 17 WNW 1019,1 10 -
15.12.2018 12:00:00 5,0 -2,0 29 16 WNW - 10 -
15.12.2018 11:00:00 4,0 -2,0 29 16 W - 10 -
15.12.2018 10:00:00 3,1 -2,2 28 15 W 1019,4 10 0,0
15.12.2018 09:00:00 1,0 -3,0 31 17 W - 10 -
15.12.2018 08:00:00 2,0 -2,0 28 15 W - 10 -
15.12.2018 07:00:00 1,8 -2,1 29 16 W 1017,8 10 -
15.12.2018 06:00:00 2,0 -2,0 28 15 W - 10 -
15.12.2018 05:00:00 2,0 -2,0 28 15 W - 10 -
15.12.2018 04:00:00 2,2 -1,3 31 17 W 1016,9 10 0,0
15.12.2018 03:00:00 3,0 0,0 18 10 W - 10 -
15.12.2018 02:00:00 3,0 0,0 24 13 W - 10 -
15.12.2018 01:00:00 3,1 -0,5 28 15 W 1016,2 10 -
15.12.2018 00:00:00 3,0 -1,0 28 15 W - 10 -
14.12.2018 23:00:00 3,0 0,0 26 14 W - 8 -
14.12.2018 22:00:00 3,4 0,4 26 14 W 1016,3 7 0,0
14.12.2018 21:00:00 4,0 1,0 24 13 W - 10 -
14.12.2018 20:00:00 4,0 1,0 24 13 W - 10 -
14.12.2018 19:00:00 4,2 1,6 21 11 W 1015,3 10 -
14.12.2018 18:00:00 4,0 2,0 16 9 WSW - 8 -
14.12.2018 17:00:00 4,0 2,0 18 10 WSW - 6 -
14.12.2018 16:00:00 3,2 2,0 15 8 WSW 1014,7 6 0,0
14.12.2018 15:00:00 3,0 2,0 22 12 WSW - 4,5 -
14.12.2018 14:00:00 3,0 2,0 26 14 W - 5 -
14.12.2018 13:00:00 2,7 1,5 22 12 W 1014,9 6 -
14.12.2018 12:00:00 3,0 2,0 28 15 W - 7 -
14.12.2018 11:00:00 3,0 2,0 24 13 W - 7 -
14.12.2018 10:00:00 2,3 1,3 24 13 W 1015,0 6 0,0
14.12.2018 09:00:00 2,0 1,0 24 13 W - 7 -
14.12.2018 08:00:00 2,0 1,0 24 13 W - 6 -
14.12.2018 07:00:00 2,2 1,0 26 14 W 1014,0 10 -
14.12.2018 06:00:00 3,0 2,0 26 14 W - 10 -
14.12.2018 05:00:00 3,0 2,0 22 12 W - 7 -
14.12.2018 04:00:00 3,0 2,5 24 13 W 1013,8 8 0,0
14.12.2018 03:00:00 3,0 3,0 22 12 W - 6 -
14.12.2018 02:00:00 4,0 3,0 22 12 W - 4,7 -
14.12.2018 01:00:00 4,1 3,2 22 12 WSW 1013,5 10 -
14.12.2018 00:00:00 5,0 3,0 21 11 W - 10 -
13.12.2018 23:00:00 5,0 3,0 22 12 W - 10 -
13.12.2018 22:00:00 4,5 2,6 16 9 WSW 1013,5 10 0,0
13.12.2018 21:00:00 4,0 2,0 16 9 WSW - 10 -
13.12.2018 20:00:00 4,0 3,0 18 10 WSW - 10 -
13.12.2018 19:00:00 4,4 2,6 16 9 WSW 1012,8 10 -
13.12.2018 18:00:00 5,0 2,0 24 13 WSW - 10 -
13.12.2018 17:00:00 4,0 2,0 21 11 WSW - 10 -
13.12.2018 16:00:00 4,4 2,1 22 12 WSW 1012,8 10 0,0
13.12.2018 15:00:00 4,0 2,0 24 13 WSW - 10 -
13.12.2018 14:00:00 4,0 2,0 22 12 WSW - 10 -
13.12.2018 13:00:00 4,4 2,6 21 11 WSW 1013,6 10 -
13.12.2018 12:00:00 4,0 3,0 22 12 WSW - 8 -
13.12.2018 11:00:00 4,0 1,0 15 8 W - 10 -
13.12.2018 10:00:00 4,0 0,9 15 8 W 1015,3 10 0,0
13.12.2018 09:00:00 4,0 -1,0 11 6 W - 10 -
13.12.2018 08:00:00 4,0 -1,0 8 4 WSW - 10 -
13.12.2018 07:00:00 3,6 -1,3 5 3 WSW 1015,2 10 -
13.12.2018 06:00:00 4,0 -1,0 13 7 WSW - 10 -
13.12.2018 05:00:00 3,0 0,0 15 8 WNW - 10 -
13.12.2018 04:00:00 2,8 0,2 5 3 WNW 1016,3 10 0,0
13.12.2018 03:00:00 2,0 0,0 5 3 SW - 10 -
13.12.2018 02:00:00 1,0 0,0 8 4 S - 10 -
13.12.2018 01:00:00 0,7 -1,1 2 1 - 1017,8 10 -
13.12.2018 00:00:00 1,0 -1,0 4 2 S - 10 -
12.12.2018 23:00:00 1,0 -2,0 4 2 W - 10 -
12.12.2018 22:00:00 0,6 -1,9 4 2 - 1018,4 10 0,0
12.12.2018 21:00:00 0,0 -2,0 4 2 S - 10 -
12.12.2018 20:00:00 0,0 -3,0 4 2 - - 10 -
12.12.2018 19:00:00 1,3 -2,1 8 4 S 1019,1 10 -
12.12.2018 18:00:00 1,0 -2,0 5 3 SSE - 10 -
12.12.2018 17:00:00 4,0 -2,0 4 2 - - 10 -
12.12.2018 16:00:00 7,0 -1,9 5 3 NNW 1019,1 10 0,0
12.12.2018 15:00:00 9,0 -2,0 4 2 - - 10 -
12.12.2018 14:00:00 8,0 -2,0 9 5 NNW - 10 -
12.12.2018 13:00:00 8,2 -2,0 13 7 NNW 1019,6 10 -
12.12.2018 12:00:00 9,0 -4,0 8 4 WNW - 10 -
12.12.2018 11:00:00 8,0 -5,0 4 2 - - 10 -
12.12.2018 10:00:00 5,5 -1,6 5 3 SSW 1020,6 10 0,0
12.12.2018 09:00:00 1,0 -3,0 4 2 - - 10 -
12.12.2018 08:00:00 -2,0 -4,0 5 3 S - 10 -
12.12.2018 07:00:00 -2,2 -4,1 4 2 SSW 1020,0 10 -
12.12.2018 06:00:00 -2,0 -4,0 8 4 SSW - 10 -
12.12.2018 05:00:00 -1,0 -3,0 8 4 SSW - 10 -
12.12.2018 04:00:00 -1,3 -3,9 9 5 S 1019,7 10 0,0
12.12.2018 03:00:00 0,0 -3,0 8 4 S - 10 -
12.12.2018 02:00:00 0,0 -3,0 5 3 SW - 10 -
12.12.2018 01:00:00 0,3 -3,1 2 1 - 1019,6 10 -
12.12.2018 00:00:00 0,0 -3,0 5 3 SSW - 10 -
11.12.2018 23:00:00 0,0 -3,0 9 5 SSW - 10 -
11.12.2018 22:00:00 1,3 -1,8 5 3 SSW 1019,6 10 0,0
11.12.2018 21:00:00 2,0 -1,0 2 1 - - 10 -
11.12.2018 20:00:00 3,0 -1,0 4 2 S - 10 -
11.12.2018 19:00:00 2,5 -0,6 9 5 S 1019,2 10 -
11.12.2018 18:00:00 5,0 0,0 8 4 S - 10 -
11.12.2018 17:00:00 7,0 1,0 8 4 W - 10 -
11.12.2018 16:00:00 9,9 1,0 15 8 NW 1018,6 10 0,0
11.12.2018 15:00:00 11,0 1,0 13 7 WNW - 10 -
11.12.2018 14:00:00 11,0 0,0 18 10 WNW - 10 -
11.12.2018 13:00:00 11,0 -1,9 24 13 W 1018,1 10 -

tt = Température de l'air
td = dewpoint
ff = Vitesse du vent
dd = Direction du vent
ppp = reduced air pressure
vv = visibility
rr = Quantités de précipitations

stations d'obs. à proximité